Data supplied by UK-AIR on 23/3/2022
All Data GMT hour ending 
Status: R =Ratified P=Provisional,P*=As supplied
,,Nottingham Western Boulevard,,,,,,,,,,,,,,,,,,,,,,,
Date,time,"PM<sub>10</sub> particulate matter (Hourly measured)",status,unit,"Nitric oxide",status,unit,"Nitrogen dioxide",status,unit,"Nitrogen oxides as nitrogen dioxide",status,unit
 
01-01-2021,01:00,126.572,R,ugm-3 (Ref.eq),173.64642,R,ugm-3,60.44727,R,ugm-3,326.70140,R,ugm-3
01-01-2021,02:00,102.417,R,ugm-3 (Ref.eq),101.28674,R,ugm-3,53.27226,R,ugm-3,208.57642,R,ugm-3
01-01-2021,03:00,61.837,R,ugm-3 (Ref.eq),36.04319,R,ugm-3,42.45670,R,ugm-3,97.72215,R,ugm-3
01-01-2021,04:00,47.344,R,ugm-3 (Ref.eq),19.51946,R,ugm-3,37.71699,R,ugm-3,67.64641,R,ugm-3
01-01-2021,05:00,40.580,R,ugm-3 (Ref.eq),23.90266,R,ugm-3,35.46430,R,ugm-3,72.11453,R,ugm-3
01-01-2021,06:00,32.851,R,ugm-3 (Ref.eq),33.52049,R,ugm-3,32.68021,R,ugm-3,84.07757,R,ugm-3
01-01-2021,07:00,11.594,R,ugm-3 (Ref.eq),18.98338,R,ugm-3,21.77150,R,ugm-3,50.87894,R,ugm-3
01-01-2021,08:00,11.594,R,ugm-3 (Ref.eq),7.00052,R,ugm-3,20.63897,R,ugm-3,31.37294,R,ugm-3
01-01-2021,09:00,9.662,R,ugm-3 (Ref.eq),5.61303,R,ugm-3,17.62568,R,ugm-3,26.23220,R,ugm-3
01-01-2021,10:00,9.662,R,ugm-3 (Ref.eq),9.30249,R,ugm-3,20.04003,R,ugm-3,34.30365,R,ugm-3
01-01-2021,11:00,8.696,R,ugm-3 (Ref.eq),7.31585,R,ugm-3,16.11973,R,ugm-3,27.33722,R,ugm-3
01-01-2021,12:00,6.763,R,ugm-3 (Ref.eq),6.93745,R,ugm-3,12.95249,R,ugm-3,23.58976,R,ugm-3
01-01-2021,13:00,5.797,R,ugm-3 (Ref.eq),10.05930,R,ugm-3,16.09303,R,ugm-3,31.51708,R,ugm-3
01-01-2021,14:00,6.763,R,ugm-3 (Ref.eq),11.73059,R,ugm-3,20.11249,R,ugm-3,38.09915,R,ugm-3
01-01-2021,15:00,4.831,R,ugm-3 (Ref.eq),9.17635,R,ugm-3,16.91838,R,ugm-3,30.98859,R,ugm-3
01-01-2021,16:00,5.797,R,ugm-3 (Ref.eq),9.64936,R,ugm-3,16.96182,R,ugm-3,31.75730,R,ugm-3
01-01-2021,17:00,6.763,R,ugm-3 (Ref.eq),7.94653,R,ugm-3,18.08341,R,ugm-3,30.26793,R,ugm-3
01-01-2021,18:00,5.797,R,ugm-3 (Ref.eq),10.65844,R,ugm-3,20.74750,R,ugm-3,37.09022,R,ugm-3
01-01-2021,19:00,6.763,R,ugm-3 (Ref.eq),10.37464,R,ugm-3,17.43521,R,ugm-3,33.34276,R,ugm-3
01-01-2021,20:00,6.763,R,ugm-3 (Ref.eq),7.69426,R,ugm-3,21.11266,R,ugm-3,32.91036,R,ugm-3
01-01-2021,21:00,5.797,R,ugm-3 (Ref.eq),6.24370,R,ugm-3,16.27430,R,ugm-3,25.84785,R,ugm-3
01-01-2021,22:00,7.730,R,ugm-3 (Ref.eq),7.09512,R,ugm-3,15.88166,R,ugm-3,26.76069,R,ugm-3
01-01-2021,23:00,6.763,R,ugm-3 (Ref.eq),2.71191,R,ugm-3,9.39029,R,ugm-3,13.54850,R,ugm-3
01-01-2021,24:00,3.865,R,ugm-3 (Ref.eq),2.20737,R,ugm-3,8.62649,R,ugm-3,12.01108,R,ugm-3
02-01-2021,01:00,1.932,R,ugm-3 (Ref.eq),3.52361,R,ugm-3,7.47665,R,ugm-3,12.87944,R,ugm-3
02-01-2021,02:00,2.899,R,ugm-3 (Ref.eq),7.42474,R,ugm-3,13.28512,R,ugm-3,24.66957,R,ugm-3
02-01-2021,03:00,4.831,R,ugm-3 (Ref.eq),19.78882,R,ugm-3,25.26020,R,ugm-3,55.60264,R,ugm-3
02-01-2021,04:00,4.831,R,ugm-3 (Ref.eq),7.01575,R,ugm-3,19.32672,R,ugm-3,30.08405,R,ugm-3
02-01-2021,05:00,1.932,R,ugm-3 (Ref.eq),11.16857,R,ugm-3,19.30275,R,ugm-3,36.42766,R,ugm-3
02-01-2021,06:00,3.865,R,ugm-3 (Ref.eq),10.31913,R,ugm-3,20.26881,R,ugm-3,36.09125,R,ugm-3
02-01-2021,07:00,5.797,R,ugm-3 (Ref.eq),20.73264,R,ugm-3,32.12699,R,ugm-3,63.91660,R,ugm-3
02-01-2021,08:00,10.628,R,ugm-3 (Ref.eq),49.45632,R,ugm-3,47.77216,R,ugm-3,123.60413,R,ugm-3
02-01-2021,09:00,13.527,R,ugm-3 (Ref.eq),92.18004,R,ugm-3,53.43666,R,ugm-3,194.77742,R,ugm-3
02-01-2021,10:00,14.493,R,ugm-3 (Ref.eq),52.75970,R,ugm-3,49.96374,R,ugm-3,130.86082,R,ugm-3
02-01-2021,11:00,12.561,R,ugm-3 (Ref.eq),38.16191,R,ugm-3,38.56223,R,ugm-3,97.07634,R,ugm-3
02-01-2021,12:00,10.628,R,ugm-3 (Ref.eq),44.64283,R,ugm-3,47.51159,R,ugm-3,115.96297,R,ugm-3
02-01-2021,13:00,20.290,R,ugm-3 (Ref.eq),65.28109,R,ugm-3,55.37004,R,ugm-3,155.46631,R,ugm-3
02-01-2021,14:00,15.459,R,ugm-3 (Ref.eq),54.20690,R,ugm-3,56.73151,R,ugm-3,139.84759,R,ugm-3
02-01-2021,15:00,9.662,R,ugm-3 (Ref.eq),25.86075,R,ugm-3,47.47582,R,ugm-3,87.12842,R,ugm-3
02-01-2021,16:00,7.730,R,ugm-3 (Ref.eq),29.25851,R,ugm-3,47.11981,R,ugm-3,91.98223,R,ugm-3
02-01-2021,17:00,13.527,R,ugm-3 (Ref.eq),33.12819,R,ugm-3,52.43187,R,ugm-3,103.22771,R,ugm-3
02-01-2021,18:00,16.425,R,ugm-3 (Ref.eq),60.71928,R,ugm-3,58.80846,R,ugm-3,151.91005,R,ugm-3
02-01-2021,19:00,21.256,R,ugm-3 (Ref.eq),44.70575,R,ugm-3,53.37426,R,ugm-3,121.92211,R,ugm-3
02-01-2021,20:00,16.425,R,ugm-3 (Ref.eq),24.38209,R,ugm-3,45.32176,R,ugm-3,82.70712,R,ugm-3
02-01-2021,21:00,10.628,R,ugm-3 (Ref.eq),12.04947,R,ugm-3,34.05135,R,ugm-3,52.52695,R,ugm-3
02-01-2021,22:00,14.493,R,ugm-3 (Ref.eq),4.53035,R,ugm-3,26.11718,R,ugm-3,33.06362,R,ugm-3
02-01-2021,23:00,11.594,R,ugm-3 (Ref.eq),4.34159,R,ugm-3,22.03338,R,ugm-3,28.69038,R,ugm-3
02-01-2021,24:00,9.662,R,ugm-3 (Ref.eq),2.67417,R,ugm-3,17.09307,R,ugm-3,21.19340,R,ugm-3
03-01-2021,01:00,4.831,R,ugm-3 (Ref.eq),1.50661,R,ugm-3,13.84171,R,ugm-3,16.15181,R,ugm-3
03-01-2021,02:00,2.899,R,ugm-3 (Ref.eq),1.08811,R,ugm-3,10.89411,R,ugm-3,12.56252,R,ugm-3
03-01-2021,03:00,3.865,R,ugm-3 (Ref.eq),1.41245,R,ugm-3,12.06325,R,ugm-3,14.22898,R,ugm-3
03-01-2021,04:00,5.797,R,ugm-3 (Ref.eq),1.66355,R,ugm-3,12.44737,R,ugm-3,14.99811,R,ugm-3
03-01-2021,05:00,5.797,R,ugm-3 (Ref.eq),1.78910,R,ugm-3,8.84183,R,ugm-3,11.58508,R,ugm-3
03-01-2021,06:00,4.831,R,ugm-3 (Ref.eq),4.36289,R,ugm-3,14.46151,R,ugm-3,21.15118,R,ugm-3
03-01-2021,07:00,6.763,R,ugm-3 (Ref.eq),9.00826,R,ugm-3,21.61575,R,ugm-3,35.42823,R,ugm-3
03-01-2021,08:00,6.763,R,ugm-3 (Ref.eq),5.90088,R,ugm-3,14.50683,R,ugm-3,23.55472,R,ugm-3
03-01-2021,09:00,4.831,R,ugm-3 (Ref.eq),7.84692,R,ugm-3,13.78228,R,ugm-3,25.81405,R,ugm-3
03-01-2021,10:00,7.730,R,ugm-3 (Ref.eq),8.91410,R,ugm-3,15.31863,R,ugm-3,28.98673,R,ugm-3
03-01-2021,11:00,8.696,R,ugm-3 (Ref.eq),19.77424,R,ugm-3,21.30803,R,ugm-3,51.62810,R,ugm-3
03-01-2021,12:00,4.831,R,ugm-3 (Ref.eq),18.48734,R,ugm-3,22.17561,R,ugm-3,50.52247,R,ugm-3
03-01-2021,13:00,1.932,R,ugm-3 (Ref.eq),15.09747,R,ugm-3,19.34551,R,ugm-3,42.49464,R,ugm-3
03-01-2021,14:00,3.865,R,ugm-3 (Ref.eq),18.61289,R,ugm-3,24.48279,R,ugm-3,53.02216,R,ugm-3
03-01-2021,15:00,8.696,R,ugm-3 (Ref.eq),16.54131,R,ugm-3,25.35178,R,ugm-3,50.71476,R,ugm-3
03-01-2021,16:00,6.763,R,ugm-3 (Ref.eq),17.60849,R,ugm-3,24.34038,R,ugm-3,51.33968,R,ugm-3
03-01-2021,17:00,6.763,R,ugm-3 (Ref.eq),15.37996,R,ugm-3,27.70933,R,ugm-3,51.29161,R,ugm-3
03-01-2021,18:00,5.797,R,ugm-3 (Ref.eq),16.98073,R,ugm-3,27.17768,R,ugm-3,53.21444,R,ugm-3
03-01-2021,19:00,5.797,R,ugm-3 (Ref.eq),14.56388,R,ugm-3,27.08587,R,ugm-3,49.41685,R,ugm-3
03-01-2021,20:00,7.730,R,ugm-3 (Ref.eq),14.94054,R,ugm-3,27.03712,R,ugm-3,49.94562,R,ugm-3
03-01-2021,21:00,9.662,R,ugm-3 (Ref.eq),10.51487,R,ugm-3,18.72880,R,ugm-3,34.85138,R,ugm-3
03-01-2021,22:00,13.527,R,ugm-3 (Ref.eq),7.62721,R,ugm-3,15.75358,R,ugm-3,27.44846,R,ugm-3
03-01-2021,23:00,11.594,R,ugm-3 (Ref.eq),8.25496,R,ugm-3,13.92576,R,ugm-3,26.58319,R,ugm-3
03-01-2021,24:00,14.493,R,ugm-3 (Ref.eq),5.36729,R,ugm-3,11.33511,R,ugm-3,19.56484,R,ugm-3
04-01-2021,01:00,5.797,R,ugm-3 (Ref.eq),2.42166,R,ugm-3,9.75039,R,ugm-3,13.46356,R,ugm-3
04-01-2021,02:00,5.797,R,ugm-3 (Ref.eq),4.09177,R,ugm-3,10.97221,R,ugm-3,17.24618,R,ugm-3
04-01-2021,03:00,5.797,R,ugm-3 (Ref.eq),2.00413,R,ugm-3,6.25536,R,ugm-3,9.32832,R,ugm-3
04-01-2021,04:00,2.899,R,ugm-3 (Ref.eq),2.41122,R,ugm-3,6.59285,R,ugm-3,10.29000,R,ugm-3
04-01-2021,05:00,6.763,R,ugm-3 (Ref.eq),4.13353,R,ugm-3,8.08726,R,ugm-3,14.42524,R,ugm-3
04-01-2021,06:00,7.730,R,ugm-3 (Ref.eq),10.39644,R,ugm-3,15.98687,R,ugm-3,31.92786,R,ugm-3
04-01-2021,07:00,9.662,R,ugm-3 (Ref.eq),21.45049,R,ugm-3,27.64762,R,ugm-3,60.53792,R,ugm-3
04-01-2021,08:00,10.628,R,ugm-3 (Ref.eq),38.23512,R,ugm-3,39.99419,R,ugm-3,98.62055,R,ugm-3
04-01-2021,09:00,12.561,R,ugm-3 (Ref.eq),46.00113,R,ugm-3,38.23221,R,ugm-3,108.76630,R,ugm-3
04-01-2021,10:00,10.628,R,ugm-3 (Ref.eq),33.72581,R,ugm-3,35.56050,R,ugm-3,87.27270,R,ugm-3
04-01-2021,11:00,10.628,R,ugm-3 (Ref.eq),27.86999,R,ugm-3,36.41310,R,ugm-3,79.14648,R,ugm-3
04-01-2021,12:00,11.594,R,ugm-3 (Ref.eq),23.32937,R,ugm-3,33.32569,R,ugm-3,69.09689,R,ugm-3
04-01-2021,13:00,8.696,R,ugm-3 (Ref.eq),15.90781,R,ugm-3,22.68272,R,ugm-3,47.07436,R,ugm-3
04-01-2021,14:00,10.628,R,ugm-3 (Ref.eq),21.16866,R,ugm-3,31.25331,R,ugm-3,63.71147,R,ugm-3
04-01-2021,15:00,11.594,R,ugm-3 (Ref.eq),31.75300,R,ugm-3,41.37433,R,ugm-3,90.06157,R,ugm-3
04-01-2021,16:00,13.527,R,ugm-3 (Ref.eq),31.31459,R,ugm-3,35.55518,R,ugm-3,83.57022,R,ugm-3
04-01-2021,17:00,11.594,R,ugm-3 (Ref.eq),22.42125,R,ugm-3,30.63098,R,ugm-3,65.00974,R,ugm-3
04-01-2021,18:00,11.594,R,ugm-3 (Ref.eq),29.15388,R,ugm-3,34.92532,R,ugm-3,79.62732,R,ugm-3
04-01-2021,19:00,10.628,R,ugm-3 (Ref.eq),19.57162,R,ugm-3,27.78773,R,ugm-3,57.79712,R,ugm-3
04-01-2021,20:00,11.594,R,ugm-3 (Ref.eq),15.12495,R,ugm-3,32.77867,R,ugm-3,55.96993,R,ugm-3
04-01-2021,21:00,8.696,R,ugm-3 (Ref.eq),10.64696,R,ugm-3,25.02724,R,ugm-3,41.35235,R,ugm-3
04-01-2021,22:00,5.797,R,ugm-3 (Ref.eq),10.77222,R,ugm-3,18.72850,R,ugm-3,35.24567,R,ugm-3
04-01-2021,23:00,6.763,R,ugm-3 (Ref.eq),6.45081,R,ugm-3,16.31475,R,ugm-3,26.20585,R,ugm-3
04-01-2021,24:00,5.797,R,ugm-3 (Ref.eq),2.12939,R,ugm-3,7.60199,R,ugm-3,10.86701,R,ugm-3
05-01-2021,01:00,4.831,R,ugm-3 (Ref.eq),1.74952,R,ugm-3,5.20541,R,ugm-3,7.88797,R,ugm-3
05-01-2021,02:00,4.831,R,ugm-3 (Ref.eq),1.91615,R,ugm-3,5.52709,R,ugm-3,8.46514,R,ugm-3
05-01-2021,03:00,4.831,R,ugm-3 (Ref.eq),1.24966,R,ugm-3,4.04796,R,ugm-3,5.96408,R,ugm-3
05-01-2021,04:00,3.865,R,ugm-3 (Ref.eq),1.24966,R,ugm-3,3.27840,R,ugm-3,5.19452,R,ugm-3
05-01-2021,05:00,3.865,R,ugm-3 (Ref.eq),3.74898,R,ugm-3,4.73688,R,ugm-3,10.48523,R,ugm-3
05-01-2021,06:00,4.831,R,ugm-3 (Ref.eq),10.46590,R,ugm-3,11.56041,R,ugm-3,27.60791,R,ugm-3
05-01-2021,07:00,5.797,R,ugm-3 (Ref.eq),22.33768,R,ugm-3,20.53231,R,ugm-3,54.78294,R,ugm-3
05-01-2021,08:00,5.797,R,ugm-3 (Ref.eq),30.24178,R,ugm-3,33.13493,R,ugm-3,79.50500,R,ugm-3
05-01-2021,09:00,5.797,R,ugm-3 (Ref.eq),33.92827,R,ugm-3,39.60292,R,ugm-3,91.62554,R,ugm-3
05-01-2021,10:00,6.763,R,ugm-3 (Ref.eq),25.36810,R,ugm-3,31.42119,R,ugm-3,70.31840,R,ugm-3
05-01-2021,11:00,6.763,R,ugm-3 (Ref.eq),32.39744,R,ugm-3,32.90785,R,ugm-3,82.58323,R,ugm-3
05-01-2021,12:00,6.763,R,ugm-3 (Ref.eq),28.61722,R,ugm-3,35.00061,R,ugm-3,78.87973,R,ugm-3
05-01-2021,13:00,7.730,R,ugm-3 (Ref.eq),26.83645,R,ugm-3,25.17766,R,ugm-3,66.32631,R,ugm-3
05-01-2021,14:00,10.628,R,ugm-3 (Ref.eq),25.43058,R,ugm-3,31.46967,R,ugm-3,70.46269,R,ugm-3
05-01-2021,15:00,11.594,R,ugm-3 (Ref.eq),31.67888,R,ugm-3,34.25011,R,ugm-3,82.82372,R,ugm-3
05-01-2021,16:00,8.696,R,ugm-3 (Ref.eq),24.27465,R,ugm-3,27.75898,R,ugm-3,64.97959,R,ugm-3
05-01-2021,17:00,9.662,R,ugm-3 (Ref.eq),28.77342,R,ugm-3,30.33614,R,ugm-3,74.45477,R,ugm-3
05-01-2021,18:00,9.662,R,ugm-3 (Ref.eq),23.89975,R,ugm-3,31.55634,R,ugm-3,68.20211,R,ugm-3
05-01-2021,19:00,7.730,R,ugm-3 (Ref.eq),21.33795,R,ugm-3,30.04938,R,ugm-3,62.76710,R,ugm-3
05-01-2021,20:00,9.662,R,ugm-3 (Ref.eq),17.49524,R,ugm-3,36.13383,R,ugm-3,62.95949,R,ugm-3
05-01-2021,21:00,6.763,R,ugm-3 (Ref.eq),9.49742,R,ugm-3,25.11785,R,ugm-3,39.68035,R,ugm-3
05-01-2021,22:00,7.730,R,ugm-3 (Ref.eq),8.52893,R,ugm-3,19.14775,R,ugm-3,32.22526,R,ugm-3
05-01-2021,23:00,6.763,R,ugm-3 (Ref.eq),7.18555,R,ugm-3,17.11929,R,ugm-3,28.13698,R,ugm-3
05-01-2021,24:00,4.831,R,ugm-3 (Ref.eq),4.81119,R,ugm-3,12.19858,R,ugm-3,19.57564,R,ugm-3
06-01-2021,01:00,2.899,R,ugm-3 (Ref.eq),1.91166,R,ugm-3,9.89834,R,ugm-3,12.82951,R,ugm-3
06-01-2021,02:00,2.899,R,ugm-3 (Ref.eq),5.65187,R,ugm-3,12.50261,R,ugm-3,21.16869,R,ugm-3
06-01-2021,03:00,1.932,R,ugm-3 (Ref.eq),2.86749,R,ugm-3,9.17045,R,ugm-3,13.56721,R,ugm-3
06-01-2021,04:00,3.865,R,ugm-3 (Ref.eq),3.17918,R,ugm-3,8.98120,R,ugm-3,13.85587,R,ugm-3
06-01-2021,05:00,4.831,R,ugm-3 (Ref.eq),6.23368,R,ugm-3,11.27374,R,ugm-3,20.83192,R,ugm-3
06-01-2021,06:00,4.831,R,ugm-3 (Ref.eq),16.67510,R,ugm-3,18.26068,R,ugm-3,43.82882,R,ugm-3
06-01-2021,07:00,6.763,R,ugm-3 (Ref.eq),36.15536,R,ugm-3,24.28193,R,ugm-3,79.71937,R,ugm-3
06-01-2021,08:00,9.662,R,ugm-3 (Ref.eq),70.90814,R,ugm-3,51.05122,R,ugm-3,159.77553,R,ugm-3
06-01-2021,09:00,13.527,R,ugm-3 (Ref.eq),69.87959,R,ugm-3,50.03034,R,ugm-3,157.17755,R,ugm-3
06-01-2021,10:00,9.662,R,ugm-3 (Ref.eq),49.55778,R,ugm-3,39.33373,R,ugm-3,115.32127,R,ugm-3
06-01-2021,11:00,9.662,R,ugm-3 (Ref.eq),48.31104,R,ugm-3,39.12850,R,ugm-3,113.20440,R,ugm-3
06-01-2021,12:00,16.425,R,ugm-3 (Ref.eq),52.54995,R,ugm-3,47.92813,R,ugm-3,128.50359,R,ugm-3
06-01-2021,13:00,9.662,R,ugm-3 (Ref.eq),51.24087,R,ugm-3,40.74621,R,ugm-3,119.31445,R,ugm-3
06-01-2021,14:00,15.459,R,ugm-3 (Ref.eq),52.76813,R,ugm-3,49.90290,R,ugm-3,130.81290,R,ugm-3
06-01-2021,15:00,15.459,R,ugm-3 (Ref.eq),43.88513,R,ugm-3,42.49895,R,ugm-3,109.78854,R,ugm-3
06-01-2021,16:00,14.493,R,ugm-3 (Ref.eq),46.72145,R,ugm-3,53.25673,R,ugm-3,124.89529,R,ugm-3
06-01-2021,17:00,28.020,R,ugm-3 (Ref.eq),77.07949,R,ugm-3,69.63714,R,ugm-3,187.82404,R,ugm-3
06-01-2021,18:00,20.290,R,ugm-3 (Ref.eq),49.86946,R,ugm-3,59.78396,R,ugm-3,136.24941,R,ugm-3
06-01-2021,19:00,17.392,R,ugm-3 (Ref.eq),42.76307,R,ugm-3,59.32617,R,ugm-3,124.89529,R,ugm-3
06-01-2021,20:00,16.425,R,ugm-3 (Ref.eq),37.43327,R,ugm-3,56.04808,R,ugm-3,113.44495,R,ugm-3
06-01-2021,21:00,18.358,R,ugm-3 (Ref.eq),33.91124,R,ugm-3,53.17342,R,ugm-3,105.16992,R,ugm-3
06-01-2021,22:00,20.290,R,ugm-3 (Ref.eq),44.78901,R,ugm-3,53.04446,R,ugm-3,121.71999,R,ugm-3
06-01-2021,23:00,26.087,R,ugm-3 (Ref.eq),63.36539,R,ugm-3,53.37937,R,ugm-3,150.53828,R,ugm-3
06-01-2021,24:00,26.087,R,ugm-3 (Ref.eq),72.74708,R,ugm-3,49.33810,R,ugm-3,160.88207,R,ugm-3
07-01-2021,01:00,19.324,R,ugm-3 (Ref.eq),90.34229,R,ugm-3,46.46549,R,ugm-3,184.98841,R,ugm-3
07-01-2021,02:00,19.324,R,ugm-3 (Ref.eq),62.56380,R,ugm-3,37.66222,R,ugm-3,133.59204,R,ugm-3
07-01-2021,03:00,25.121,R,ugm-3 (Ref.eq),48.53981,R,ugm-3,34.91092,R,ugm-3,109.33758,R,ugm-3
07-01-2021,04:00,21.256,R,ugm-3 (Ref.eq),39.45997,R,ugm-3,32.27850,R,ugm-3,92.78295,R,ugm-3
07-01-2021,05:00,18.358,R,ugm-3 (Ref.eq),49.65924,R,ugm-3,33.09823,R,ugm-3,109.24133,R,ugm-3
07-01-2021,06:00,23.189,R,ugm-3 (Ref.eq),103.20539,R,ugm-3,51.42993,R,ugm-3,209.67599,R,ugm-3
07-01-2021,07:00,27.054,R,ugm-3 (Ref.eq),142.41660,R,ugm-3,62.57846,R,ugm-3,280.94753,R,ugm-3
07-01-2021,08:00,27.054,R,ugm-3 (Ref.eq),221.83407,R,ugm-3,84.64915,R,ugm-3,424.78998,R,ugm-3
07-01-2021,09:00,25.121,R,ugm-3 (Ref.eq),231.62909,R,ugm-3,84.06750,R,ugm-3,439.22716,R,ugm-3
07-01-2021,10:00,47.344,R,ugm-3 (Ref.eq),187.72249,R,ugm-3,76.70167,R,ugm-3,364.53881,R,ugm-3
07-01-2021,11:00,45.411,R,ugm-3 (Ref.eq),111.69442,R,ugm-3,63.82304,R,ugm-3,235.08542,R,ugm-3
07-01-2021,12:00,31.885,R,ugm-3 (Ref.eq),77.14751,R,ugm-3,50.52757,R,ugm-3,168.81877,R,ugm-3
07-01-2021,13:00,26.087,R,ugm-3 (Ref.eq),55.00763,R,ugm-3,43.76205,R,ugm-3,128.10592,R,ugm-3
07-01-2021,14:00,26.087,R,ugm-3 (Ref.eq),112.19194,R,ugm-3,52.80978,R,ugm-3,224.83503,R,ugm-3
07-01-2021,15:00,35.749,R,ugm-3 (Ref.eq),84.36162,R,ugm-3,59.34126,R,ugm-3,188.69395,R,ugm-3
07-01-2021,16:00,35.749,R,ugm-3 (Ref.eq),74.62879,R,ugm-3,58.91321,R,ugm-3,173.34242,R,ugm-3
07-01-2021,17:00,35.749,R,ugm-3 (Ref.eq),95.49375,R,ugm-3,60.07810,R,ugm-3,206.49981,R,ugm-3
07-01-2021,18:00,46.378,R,ugm-3 (Ref.eq),127.49084,R,ugm-3,68.66905,R,ugm-3,264.15228,R,ugm-3
07-01-2021,19:00,50.242,R,ugm-3 (Ref.eq),133.46115,R,ugm-3,66.20394,R,ugm-3,270.84151,R,ugm-3
07-01-2021,20:00,48.310,R,ugm-3 (Ref.eq),91.45136,R,ugm-3,56.07407,R,ugm-3,196.29753,R,ugm-3
07-01-2021,21:00,52.175,R,ugm-3 (Ref.eq),97.32837,R,ugm-3,55.38821,R,ugm-3,204.62297,R,ugm-3
07-01-2021,22:00,47.344,R,ugm-3 (Ref.eq),95.68032,R,ugm-3,54.64276,R,ugm-3,201.35055,R,ugm-3
07-01-2021,23:00,53.141,R,ugm-3 (Ref.eq),127.33537,R,ugm-3,62.02572,R,ugm-3,257.27056,R,ugm-3
07-01-2021,24:00,52.175,R,ugm-3 (Ref.eq),96.95523,R,ugm-3,50.81110,R,ugm-3,199.47371,R,ugm-3
08-01-2021,01:00,47.344,R,ugm-3 (Ref.eq),100.38797,R,ugm-3,50.04731,R,ugm-3,203.97338,R,ugm-3
08-01-2021,02:00,43.479,R,ugm-3 (Ref.eq),53.68916,R,ugm-3,39.24026,R,ugm-3,121.56249,R,ugm-3
08-01-2021,03:00,36.716,R,ugm-3 (Ref.eq),42.93478,R,ugm-3,36.07405,R,ugm-3,101.90646,R,ugm-3
08-01-2021,04:00,36.716,R,ugm-3 (Ref.eq),46.71949,R,ugm-3,33.39982,R,ugm-3,105.03538,R,ugm-3
08-01-2021,05:00,34.783,R,ugm-3 (Ref.eq),43.77238,R,ugm-3,32.71985,R,ugm-3,99.83656,R,ugm-3
08-01-2021,06:00,31.885,R,ugm-3 (Ref.eq),83.60494,R,ugm-3,43.84992,R,ugm-3,172.04237,R,ugm-3
08-01-2021,07:00,30.918,R,ugm-3 (Ref.eq),116.86078,R,ugm-3,49.56397,R,ugm-3,228.74799,R,ugm-3
08-01-2021,08:00,34.783,R,ugm-3 (Ref.eq),152.38124,R,ugm-3,59.36318,R,ugm-3,293.01116,R,ugm-3
08-01-2021,09:00,30.918,R,ugm-3 (Ref.eq),178.40890,R,ugm-3,60.80452,R,ugm-3,334.36102,R,ugm-3
08-01-2021,10:00,32.851,R,ugm-3 (Ref.eq),215.29434,R,ugm-3,81.50784,R,ugm-3,411.62123,R,ugm-3
08-01-2021,11:00,33.817,R,ugm-3 (Ref.eq),168.41974,R,ugm-3,78.81670,R,ugm-3,337.05670,R,ugm-3
08-01-2021,12:00,16.425,R,ugm-3 (Ref.eq),82.17791,R,ugm-3,73.09110,R,ugm-3,199.09548,R,ugm-3
08-01-2021,13:00,13.527,R,ugm-3 (Ref.eq),49.54252,R,ugm-3,63.58562,R,ugm-3,139.54976,R,ugm-3
08-01-2021,14:00,15.459,R,ugm-3 (Ref.eq),57.23603,R,ugm-3,65.89326,R,ugm-3,153.65396,R,ugm-3
08-01-2021,15:00,14.493,R,ugm-3 (Ref.eq),58.01159,R,ugm-3,59.50527,R,ugm-3,148.45514,R,ugm-3
08-01-2021,16:00,13.527,R,ugm-3 (Ref.eq),38.15736,R,ugm-3,52.11217,R,ugm-3,110.61930,R,ugm-3
08-01-2021,17:00,28.020,R,ugm-3 (Ref.eq),39.21211,R,ugm-3,49.82098,R,ugm-3,109.94537,R,ugm-3
08-01-2021,18:00,30.918,R,ugm-3 (Ref.eq),47.09176,R,ugm-3,57.57154,R,ugm-3,129.77790,R,ugm-3
08-01-2021,19:00,28.020,R,ugm-3 (Ref.eq),45.72678,R,ugm-3,59.47193,R,ugm-3,129.58535,R,ugm-3
08-01-2021,20:00,25.121,R,ugm-3 (Ref.eq),22.58419,R,ugm-3,42.96856,R,ugm-3,77.59717,R,ugm-3
08-01-2021,21:00,18.358,R,ugm-3 (Ref.eq),11.91254,R,ugm-3,30.25666,R,ugm-3,48.52230,R,ugm-3
08-01-2021,22:00,13.527,R,ugm-3 (Ref.eq),12.59503,R,ugm-3,33.25372,R,ugm-3,52.56583,R,ugm-3
08-01-2021,23:00,10.628,R,ugm-3 (Ref.eq),7.69352,R,ugm-3,27.05017,R,ugm-3,38.84672,R,ugm-3
08-01-2021,24:00,17.392,R,ugm-3 (Ref.eq),4.37414,R,ugm-3,16.39894,R,ugm-3,23.10586,R,ugm-3
09-01-2021,01:00,17.392,R,ugm-3 (Ref.eq),3.77580,R,ugm-3,16.84125,R,ugm-3,22.63072,R,ugm-3
09-01-2021,02:00,18.358,R,ugm-3 (Ref.eq),7.42780,R,ugm-3,26.36084,R,ugm-3,37.74997,R,ugm-3
09-01-2021,03:00,15.459,R,ugm-3 (Ref.eq),5.44705,R,ugm-3,28.77199,R,ugm-3,37.12401,R,ugm-3
09-01-2021,04:00,18.358,R,ugm-3 (Ref.eq),6.71597,R,ugm-3,26.34484,R,ugm-3,36.64251,R,ugm-3
09-01-2021,05:00,19.324,R,ugm-3 (Ref.eq),11.42024,R,ugm-3,30.20633,R,ugm-3,47.71712,R,ugm-3
09-01-2021,06:00,19.324,R,ugm-3 (Ref.eq),20.95258,R,ugm-3,39.85812,R,ugm-3,71.98496,R,ugm-3
09-01-2021,07:00,18.358,R,ugm-3 (Ref.eq),41.28617,R,ugm-3,50.18609,R,ugm-3,113.49066,R,ugm-3
09-01-2021,08:00,21.256,R,ugm-3 (Ref.eq),77.77522,R,ugm-3,52.64351,R,ugm-3,171.89719,R,ugm-3
09-01-2021,09:00,27.054,R,ugm-3 (Ref.eq),143.48027,R,ugm-3,61.10245,R,ugm-3,281.10246,R,ugm-3
09-01-2021,10:00,32.851,R,ugm-3 (Ref.eq),159.32623,R,ugm-3,67.76639,R,ugm-3,312.06321,R,ugm-3
09-01-2021,11:00,31.885,R,ugm-3 (Ref.eq),78.79654,R,ugm-3,56.90372,R,ugm-3,177.72339,R,ugm-3
09-01-2021,12:00,30.918,R,ugm-3 (Ref.eq),43.01932,R,ugm-3,49.16574,R,ugm-3,115.12778,R,ugm-3
09-01-2021,13:00,24.155,R,ugm-3 (Ref.eq),34.32261,R,ugm-3,47.86277,R,ugm-3,100.49004,R,ugm-3
09-01-2021,14:00,24.155,R,ugm-3 (Ref.eq),40.48149,R,ugm-3,54.11634,R,ugm-3,116.18709,R,ugm-3
09-01-2021,15:00,26.087,R,ugm-3 (Ref.eq),30.02068,R,ugm-3,47.62161,R,ugm-3,93.65267,R,ugm-3
09-01-2021,16:00,26.087,R,ugm-3 (Ref.eq),30.05163,R,ugm-3,44.82957,R,ugm-3,90.90809,R,ugm-3
09-01-2021,17:00,22.223,R,ugm-3 (Ref.eq),22.65478,R,ugm-3,37.53702,R,ugm-3,72.27386,R,ugm-3
09-01-2021,18:00,20.290,R,ugm-3 (Ref.eq),26.12108,R,ugm-3,41.27438,R,ugm-3,81.32615,R,ugm-3
09-01-2021,19:00,23.189,R,ugm-3 (Ref.eq),42.98837,R,ugm-3,58.40993,R,ugm-3,124.32452,R,ugm-3
09-01-2021,20:00,21.256,R,ugm-3 (Ref.eq),20.67403,R,ugm-3,47.02628,R,ugm-3,78.72602,R,ugm-3
09-01-2021,21:00,27.054,R,ugm-3 (Ref.eq),19.77651,R,ugm-3,46.81350,R,ugm-3,77.13706,R,ugm-3
09-01-2021,22:00,25.121,R,ugm-3 (Ref.eq),18.16715,R,ugm-3,39.12140,R,ugm-3,66.97731,R,ugm-3
09-01-2021,23:00,21.256,R,ugm-3 (Ref.eq),14.82464,R,ugm-3,36.59058,R,ugm-3,59.32138,R,ugm-3
09-01-2021,24:00,17.392,R,ugm-3 (Ref.eq),6.74692,R,ugm-3,28.75306,R,ugm-3,39.09818,R,ugm-3
10-01-2021,01:00,16.425,R,ugm-3 (Ref.eq),6.38105,R,ugm-3,22.90298,R,ugm-3,32.68713,R,ugm-3
10-01-2021,02:00,10.628,R,ugm-3 (Ref.eq),3.45812,R,ugm-3,20.32074,R,ugm-3,25.62311,R,ugm-3
10-01-2021,03:00,12.561,R,ugm-3 (Ref.eq),1.91432,R,ugm-3,14.30738,R,ugm-3,17.24262,R,ugm-3
10-01-2021,04:00,12.561,R,ugm-3 (Ref.eq),2.25395,R,ugm-3,15.80948,R,ugm-3,19.26550,R,ugm-3
10-01-2021,05:00,11.594,R,ugm-3 (Ref.eq),10.15823,R,ugm-3,21.22137,R,ugm-3,36.79710,R,ugm-3
10-01-2021,06:00,10.628,R,ugm-3 (Ref.eq),8.92318,R,ugm-3,23.11508,R,ugm-3,36.79710,R,ugm-3
10-01-2021,07:00,8.696,R,ugm-3 (Ref.eq),12.10342,R,ugm-3,27.82337,R,ugm-3,46.38168,R,ugm-3
10-01-2021,08:00,7.730,R,ugm-3 (Ref.eq),23.46581,R,ugm-3,38.09543,R,ugm-3,74.07583,R,ugm-3
10-01-2021,09:00,8.696,R,ugm-3 (Ref.eq),24.11421,R,ugm-3,41.14699,R,ugm-3,78.12159,R,ugm-3
10-01-2021,10:00,14.493,R,ugm-3 (Ref.eq),23.92895,R,ugm-3,35.41058,R,ugm-3,72.10112,R,ugm-3
10-01-2021,11:00,13.527,R,ugm-3 (Ref.eq),22.63216,R,ugm-3,37.39897,R,ugm-3,72.10112,R,ugm-3
10-01-2021,12:00,8.696,R,ugm-3 (Ref.eq),15.87030,R,ugm-3,27.24925,R,ugm-3,51.58337,R,ugm-3
10-01-2021,13:00,12.561,R,ugm-3 (Ref.eq),18.30951,R,ugm-3,30.83007,R,ugm-3,58.90426,R,ugm-3
10-01-2021,14:00,13.527,R,ugm-3 (Ref.eq),19.76068,R,ugm-3,34.24012,R,ugm-3,64.53941,R,ugm-3
10-01-2021,15:00,17.392,R,ugm-3 (Ref.eq),23.92895,R,ugm-3,38.25224,R,ugm-3,74.94278,R,ugm-3
10-01-2021,16:00,16.425,R,ugm-3 (Ref.eq),22.44690,R,ugm-3,40.76550,R,ugm-3,75.18360,R,ugm-3
10-01-2021,17:00,10.628,R,ugm-3 (Ref.eq),22.47778,R,ugm-3,48.76150,R,ugm-3,83.22695,R,ugm-3
10-01-2021,18:00,11.594,R,ugm-3 (Ref.eq),17.59936,R,ugm-3,44.05621,R,ugm-3,71.04152,R,ugm-3
10-01-2021,19:00,12.561,R,ugm-3 (Ref.eq),20.28558,R,ugm-3,42.58641,R,ugm-3,73.69052,R,ugm-3
10-01-2021,20:00,15.459,R,ugm-3 (Ref.eq),22.13814,R,ugm-3,38.49360,R,ugm-3,72.43827,R,ugm-3
10-01-2021,21:00,20.290,R,ugm-3 (Ref.eq),12.72094,R,ugm-3,38.05050,R,ugm-3,57.55567,R,ugm-3
10-01-2021,22:00,9.662,R,ugm-3 (Ref.eq),8.30566,R,ugm-3,26.37379,R,ugm-3,39.10896,R,ugm-3
10-01-2021,23:00,7.730,R,ugm-3 (Ref.eq),4.53878,R,ugm-3,19.57885,R,ugm-3,26.53822,R,ugm-3
10-01-2021,24:00,5.797,R,ugm-3 (Ref.eq),3.95214,R,ugm-3,13.20564,R,ugm-3,19.26550,R,ugm-3
11-01-2021,01:00,5.797,R,ugm-3 (Ref.eq),2.75173,R,ugm-3,12.03245,R,ugm-3,16.25171,R,ugm-3
11-01-2021,02:00,4.831,R,ugm-3 (Ref.eq),2.99816,R,ugm-3,11.84731,R,ugm-3,16.44442,R,ugm-3
11-01-2021,03:00,1.932,R,ugm-3 (Ref.eq),2.31022,R,ugm-3,9.41732,R,ugm-3,12.95962,R,ugm-3
11-01-2021,04:00,0.000,R,ugm-3 (Ref.eq),2.52584,R,ugm-3,12.17004,R,ugm-3,16.04295,R,ugm-3
11-01-2021,05:00,4.831,R,ugm-3 (Ref.eq),2.95709,R,ugm-3,10.20803,R,ugm-3,14.74217,R,ugm-3
11-01-2021,06:00,3.865,R,ugm-3 (Ref.eq),7.82396,R,ugm-3,14.93438,R,ugm-3,26.93095,R,ugm-3
11-01-2021,07:00,5.797,R,ugm-3 (Ref.eq),20.14515,R,ugm-3,26.10461,R,ugm-3,56.99340,R,ugm-3
11-01-2021,08:00,6.763,R,ugm-3 (Ref.eq),33.79087,R,ugm-3,41.07334,R,ugm-3,92.88528,R,ugm-3
11-01-2021,09:00,4.831,R,ugm-3 (Ref.eq),27.81509,R,ugm-3,40.88973,R,ugm-3,83.53894,R,ugm-3
11-01-2021,10:00,6.763,R,ugm-3 (Ref.eq),31.72707,R,ugm-3,51.03074,R,ugm-3,99.67823,R,ugm-3
11-01-2021,11:00,6.763,R,ugm-3 (Ref.eq),18.51259,R,ugm-3,27.25887,R,ugm-3,55.64445,R,ugm-3
11-01-2021,12:00,8.696,R,ugm-3 (Ref.eq),16.20237,R,ugm-3,24.20092,R,ugm-3,49.04420,R,ugm-3
11-01-2021,13:00,4.831,R,ugm-3 (Ref.eq),9.21009,R,ugm-3,15.69963,R,ugm-3,29.82157,R,ugm-3
11-01-2021,14:00,3.865,R,ugm-3 (Ref.eq),12.81404,R,ugm-3,16.58119,R,ugm-3,36.22911,R,ugm-3
11-01-2021,15:00,5.797,R,ugm-3 (Ref.eq),21.50048,R,ugm-3,32.93921,R,ugm-3,65.90615,R,ugm-3
11-01-2021,16:00,9.662,R,ugm-3 (Ref.eq),31.23422,R,ugm-3,37.67057,R,ugm-3,85.56237,R,ugm-3
11-01-2021,17:00,5.797,R,ugm-3 (Ref.eq),31.54225,R,ugm-3,47.07455,R,ugm-3,95.43866,R,ugm-3
11-01-2021,18:00,17.392,R,ugm-3 (Ref.eq),29.26283,R,ugm-3,41.70504,R,ugm-3,86.57409,R,ugm-3